STARLINK-11311, 61253

Orbit data source: Space-Track

STARLINK-11311, 61253 is a payload satellite owned by SpaceX/Seattle (US) in LEO that was launched on Wed, 25 Sep 2024 UTC via an FALCON 9 launch vehicle from the Air Force Western Test Range (AFWTR). Payload-class satellites include a variety of spacecraft equipped with specific instruments for various scientific and technological missions. These include communications satellites like Starlink; space stations such as the ISS; scientific satellites like the Hubble; Earth observation satellites from companies like Planet Labs, Umbra, and HawkEye 360; GPS; miniature CubeSats for education and research; and military/defense satellites.

Loading next visibility...
Identifier
61253, 2024-175L
Orbit
LEO
Country
Flag of USUS
Related business
Manufacturer
SpaceX/Seattle
Mission
Operational Commercial Communications
Bus & Motor
STARLINK V2MD, Unknown motor
Mass
960 kg wet, ~910 kg dry
Launch date (UTC)
2024-09-25 (1 year ago)
Launch vehicle
FALCON 9
Launch site
Air Force Western Test Range (AFWTR)
Object type
Payload
Rocket body
Debris
Shape & HBR
Box + 2 Pan, 18.1 m
Radar Cross Section
36.964 m², Large (>1 m²)

Expand to show TLE details & history
Last TLE update: 9 hours ago

TLE from 9 hours ago
0 STARLINK-11311
1 61253U 24175L   25288.77701352 -.00014081  00000-0 -11138-3 0  9996
2 61253  53.1553  50.8263 0000434  58.4585 301.6475 15.69751770 61811
Epoch: 2025-10-15T18:38Z
TLE epoch observation values (Epoch: 2025-10-15T18:38:53.968Z)
Latitude
-0.00002°
Longitude
106.55519°
Altitude
360.368 km
Speed
7.694 km/s
True Right ascension
03h 23m 18s
True Declination
0° 00' 00"
Sunlit
Object was in full shadow at epoch
Visualization orbit readout
Latitude
Unknown
Longitude
Unknown
Altitude
Unknown
Speed
Unknown
Apparent Right ascension
Unknown
Apparent Declination
Unknown
Sunlit
N/A
Visualization observer readout
Local Sidereal Time
22:13:58
Azimuth
Unknown
Elevation
Unknown
Doppler factor
Unknown
Orbital elements
Apogee altitude
360.161 km
Perigee altitude
359.576 km
Semi-major axis
6,738.006 km
Eccentricity
0.00004
Inclination
53.1553°
RAAN
50.8263°
Arg. of periapsis
58.4585°
True anomaly
301.64327°
Mean anomaly
301.6475°
Eccentric anomaly
301.64538°
Mean motion
3.92415 °/min
Orbital period
91.74 mins
BSTAR
-0.00011138
Loading maneuver chart data...
Computing Atmospheric mass density...
Loading historical data...
Loading historical data...
Loading historical data...
Loading historical data...
Loading historical data...
Loading historical data...
Loading historical data...

Documentation

Showing up to 5 results
|